Heath, OH

10:06 PM EST on February 19, 2017 (GMT -0500)
Newark Heath

Weather History for KVTA - November, 2012

Change the Weather History Date:

Tuesday, November 20, 2012

  Actual Average Record
Temperature  
Mean Temperature 44 °F -  
Max Temperature 55 °F 51 °F 73 °F (1942)
Min Temperature 34 °F 33 °F 11 °F (1951)
Degree Days  
Heating Degree Days 20    
Moisture  
Dew Point 36 °F    
Average Humidity 74    
Maximum Humidity 92    
Minimum Humidity 49    
Precipitation  
Precipitation 0.00 in - - ()
Sea Level Pressure  
Sea Level Pressure 30.15 in    
Wind  
Wind Speed 0 mph (SW)    
Max Wind Speed 6 mph    
Max Gust Speed -    
Visibility 9 miles    
Events      
Averages and records for this station are not official NWS values.
T = Trace of Precipitation, MM = Missing Value Source: NWS Daily Summary

Daily Weather History Graph

Daily Weather History Graph

Search for Another Location

Airport or City:

Trip Planner

Search our weather history database for the weather conditions in past years. The results will help you decide how hot, cold, wet, or windy it might be!

Date:

Astronomy

Nov. 20, 2012 Rise Set
Actual Time 7:21 AM EST 5:09 PM EST
Civil Twilight 6:51 AM EST 5:38 PM EST
Nautical Twilight 6:18 AM EST 6:12 PM EST
Astronomical Twilight 5:46 AM EST 6:44 PM EST
Moon 12:55 PM EST No Moon Set
Length of Visible Light 10h 47m
Length of Day
9h 48m
Waxing Crescent, 51% of the Moon is Illuminated
Nov 20
Waxing Crescent
Nov 28
Full
Dec 6
Last Quarter
Dec 13
New
Dec 20
First Quarter

Hourly Weather History & Observations

Time (EST) Temp. Dew Point Humidity Pressure Visibility Wind Dir Wind Speed Gust Speed Precip Events Conditions
12:54 AM 35.1 °F 32.0 °F 89% 30.19 in 8.0 mi Calm Calm - N/A   Clear
1:54 AM 34.0 °F 30.9 °F 89% 30.18 in 8.0 mi Calm Calm - N/A   Clear
2:54 AM 35.1 °F 32.0 °F 89% 30.18 in 8.0 mi Calm Calm - N/A   Partly Cloudy
3:54 AM 34.0 °F 32.0 °F 92% 30.17 in 8.0 mi Calm Calm - N/A   Clear
4:54 AM 35.1 °F 32.0 °F 89% 30.17 in 7.0 mi Calm Calm - N/A   Partly Cloudy
5:54 AM 35.1 °F 32.0 °F 89% 30.17 in 7.0 mi Calm Calm - N/A   Clear
6:54 AM 35.1 °F 33.1 °F 92% 30.18 in 8.0 mi Calm Calm - N/A   Mostly Cloudy
7:54 AM 37.0 °F 33.1 °F 86% 30.18 in 6.0 mi Calm Calm - N/A   Mostly Cloudy
8:54 AM 39.0 °F 35.1 °F 86% 30.19 in 7.0 mi Calm Calm - N/A   Partly Cloudy
9:54 AM 46.0 °F 37.0 °F 71% 30.18 in 8.0 mi Calm Calm - N/A   Clear
10:54 AM 51.1 °F 36.0 °F 56% 30.15 in 10.0 mi East 5.8 mph - N/A   Mostly Cloudy
11:54 AM 52.0 °F 36.0 °F 54% 30.15 in 10.0 mi WSW 3.5 mph - N/A   Overcast
12:54 PM 53.1 °F 36.0 °F 52% 30.13 in 10.0 mi SW 3.5 mph - N/A   Overcast
1:54 PM 55.0 °F 36.0 °F 49% 30.11 in 10.0 mi Calm Calm - N/A   Overcast
2:54 PM 55.0 °F 36.0 °F 49% 30.10 in 10.0 mi Calm Calm - N/A   Overcast
3:54 PM 55.0 °F 41.0 °F 59% 30.10 in 10.0 mi Calm Calm - N/A   Overcast
4:54 PM 54.0 °F 37.0 °F 53% 30.10 in 10.0 mi Calm Calm - N/A   Overcast
5:54 PM 48.9 °F 39.0 °F 69% 30.12 in 10.0 mi Calm Calm - N/A   Overcast
6:54 PM 48.0 °F 39.9 °F 74% 30.13 in 10.0 mi Calm Calm - N/A   Overcast
7:54 PM 46.9 °F 39.9 °F 77% 30.15 in 10.0 mi Calm Calm - N/A   Overcast
8:54 PM 46.9 °F 39.0 °F 74% 30.16 in 10.0 mi Calm Calm - N/A   Overcast
9:54 PM 46.0 °F 39.9 °F 79% 30.15 in 10.0 mi Calm Calm - N/A   Overcast
10:54 PM 42.1 °F 37.9 °F 85% 30.15 in 10.0 mi Calm Calm - N/A   Scattered Clouds
11:54 PM 41.0 °F 37.0 °F 86% 30.15 in 10.0 mi Calm Calm - N/A   Partly Cloudy